Weather History for Truckee-Tahoe, CA

Change the Weather History Date:

Thursday, August 9, 2012

  Actual Average Record
Temperature  
Mean Temperature 66 °F -  
Max Temperature 89 °F 84 °F 97 °F (1981)
Min Temperature 44 °F 42 °F 30 °F (1950)
Cooling Degree Days 2    
Growing Degree Days 16 (Base 50)    
Moisture  
Dew Point 39 °F    
Average Humidity 48    
Maximum Humidity 81    
Minimum Humidity 18    
Precipitation  
Precipitation 0.00 in - - ()
Sea Level Pressure  
Sea Level Pressure 30.27 in    
Wind  
Wind Speed 3 mph (SW)    
Max Wind Speed 17 mph    
Max Gust Speed 25 mph    
Visibility 10 miles    
Events      
Averages and records for this station are not official NWS values.
T = Trace of Precipitation, MM = Missing Value Source: NWS Daily Summary

Daily Weather History Graph

Daily Weather History Graph

Search for Another Location

Airport:

Trip Planner

Search our weather history database for the weather conditions in past years. The results will help you decide how hot, cold, wet, or windy it might be!

Date:

Astronomy

Aug. 09, 2012 Rise Set
Actual Time 6:08 AM PDT 8:02 PM PDT
Civil Twilight 5:39 AM PDT 8:31 PM PDT
Nautical Twilight 5:03 AM PDT 9:07 PM PDT
Astronomical Twilight 4:25 AM PDT 9:45 PM PDT
Moon No Moon Rise 1:51 PM PDT (8/9)
Length of Visible Light 14h 52m
Length of Day
13h 54m
Waning Gibbous, 50% of the Moon is Illuminated
Aug 9
Waning Gibbous
Aug 17
New
Aug 24
First Quarter
Aug 31
Full
Sep 8
Last Quarter

Hourly Weather History & Observations

Time (PDT) Temp. Dew Point Humidity Pressure Visibility Wind Dir Wind Speed Gust Speed Precip Events Conditions
12:15 AM 55.4 °F 39.2 °F 54% 30.32 in 10.0 mi Calm Calm - N/A   Clear
12:35 AM 53.6 °F 39.2 °F 58% 30.32 in 10.0 mi Calm Calm - N/A   Clear
12:55 AM 51.8 °F 39.2 °F 62% 30.33 in 10.0 mi Calm Calm - N/A   Clear
1:15 AM 50.0 °F 39.2 °F 66% 30.32 in 10.0 mi Calm Calm - N/A   Clear
1:35 AM 50.0 °F 41.0 °F 71% 30.32 in 10.0 mi Calm Calm - N/A   Clear
1:55 AM 53.6 °F 41.0 °F 62% 30.32 in 10.0 mi Calm Calm - N/A   Clear
2:15 AM 50.0 °F 39.2 °F 66% 30.32 in 10.0 mi Calm Calm - N/A   Clear
2:35 AM 50.0 °F 41.0 °F 71% 30.32 in 10.0 mi Calm Calm - N/A   Clear
2:55 AM 50.0 °F 41.0 °F 71% 30.31 in 10.0 mi Calm Calm - N/A   Clear
3:15 AM 50.0 °F 41.0 °F 71% 30.31 in 10.0 mi Calm Calm - N/A   Clear
3:35 AM 48.2 °F 41.0 °F 76% 30.31 in 10.0 mi Calm Calm - N/A   Clear
3:55 AM 48.2 °F 41.0 °F 76% 30.31 in 10.0 mi Calm Calm - N/A   Clear
4:15 AM 48.2 °F 41.0 °F 76% 30.31 in 10.0 mi Calm Calm - N/A   Clear
4:35 AM 46.4 °F 39.2 °F 76% 30.30 in 10.0 mi Calm Calm - N/A   Clear
4:55 AM 46.4 °F 39.2 °F 76% 30.30 in 10.0 mi Calm Calm - N/A   Clear
5:15 AM 48.2 °F 41.0 °F 76% 30.30 in 10.0 mi Calm Calm - N/A   Clear
5:35 AM 46.4 °F 39.2 °F 76% 30.30 in 10.0 mi Calm Calm - N/A   Clear
5:55 AM 46.4 °F 39.2 °F 76% 30.31 in 10.0 mi Calm Calm - N/A   Clear
6:15 AM 46.4 °F 39.2 °F 76% 30.31 in 10.0 mi Calm Calm - N/A   Clear
6:35 AM 44.6 °F 39.2 °F 81% 30.31 in 10.0 mi Calm Calm - N/A   Clear
6:45 AM 46.4 °F 39.2 °F 76% 30.31 in 10.0 mi Calm Calm - N/A   Clear
7:55 AM 55.4 °F 41.0 °F 58% 30.31 in 10.0 mi Calm Calm - N/A   Clear
9:55 AM 68.0 °F 42.8 °F 40% 30.29 in 10.0 mi Calm Calm - N/A   Clear
11:55 AM 87.8 °F 39.2 °F 18% 30.26 in 10.0 mi WSW 16.1 mph 19.6 mph N/A   Clear
12:45 PM 87.8 °F 39.2 °F 18% 30.26 in 10.0 mi SW 15.0 mph 24.2 mph N/A   Partly Cloudy
2:55 PM 89.6 °F 41.0 °F 18% 30.24 in 10.0 mi SSW 17.3 mph 25.3 mph N/A   Scattered Clouds
3:45 PM 89.6 °F 41.0 °F 18% 30.23 in 10.0 mi SW 11.5 mph 20.7 mph N/A   Scattered Clouds
4:45 PM 86.0 °F 39.2 °F 19% 30.22 in 10.0 mi WSW 15.0 mph 24.2 mph N/A   Scattered Clouds
5:45 PM 84.2 °F 39.2 °F 20% 30.22 in 10.0 mi WSW 13.8 mph 20.7 mph N/A   Scattered Clouds
5:55 PM 84.2 °F 37.4 °F 19% 30.22 in 10.0 mi WSW 11.5 mph 18.4 mph N/A   Clear
6:15 PM 84.2 °F 37.4 °F 19% 30.22 in 10.0 mi SW 11.5 mph 17.3 mph N/A   Clear
6:35 PM 84.2 °F 37.4 °F 19% 30.22 in 10.0 mi SW 8.1 mph - N/A   Clear
6:55 PM 82.4 °F 37.4 °F 20% 30.22 in 10.0 mi West 12.7 mph 17.3 mph N/A   Clear
7:15 PM 80.6 °F 37.4 °F 21% 30.23 in 10.0 mi West 8.1 mph - N/A   Clear
7:35 PM 78.8 °F 35.6 °F 21% 30.23 in 10.0 mi West 8.1 mph - N/A   Clear
7:55 PM 77.0 °F 35.6 °F 22% 30.23 in 10.0 mi West 6.9 mph - N/A   Clear
8:15 PM 75.2 °F 33.8 °F 22% 30.23 in 10.0 mi West 4.6 mph - N/A   Clear
8:35 PM 73.4 °F 33.8 °F 23% 30.24 in 10.0 mi West 5.8 mph - N/A   Clear
8:55 PM 64.4 °F 37.4 °F 37% 30.24 in 10.0 mi SSE 6.9 mph - N/A   Clear
9:15 PM 64.4 °F 37.4 °F 37% 30.25 in 10.0 mi South 3.5 mph - N/A   Clear
9:35 PM 66.2 °F 37.4 °F 35% 30.25 in 10.0 mi South 6.9 mph - N/A   Clear
9:55 PM 60.8 °F 35.6 °F 39% 30.25 in 10.0 mi SW 8.1 mph - N/A   Clear
10:15 PM 62.6 °F 35.6 °F 37% 30.25 in 10.0 mi ENE 3.5 mph - N/A   Clear
10:35 PM 59.0 °F 35.6 °F 42% 30.25 in 10.0 mi ESE 3.5 mph - N/A   Clear
10:55 PM 59.0 °F 35.6 °F 42% 30.25 in 10.0 mi Calm Calm - N/A   Clear
11:15 PM 59.0 °F 35.6 °F 42% 30.25 in 10.0 mi Calm Calm - N/A   Clear
11:35 PM 57.2 °F 35.6 °F 44% 30.26 in 10.0 mi Calm Calm - N/A   Clear
11:55 PM 55.4 °F 35.6 °F 47% 30.26 in 10.0 mi Calm Calm - N/A   Clear